Meacham, OR

11:58 PM PDT on April 23, 2018 (GMT -0700)
Meacham

Weather History for KMEH - April, 2013

Change the Weather History Date:

Wednesday, April 17, 2013

  Actual Average Record
Temperature  
Mean Temperature 30 °F -  
Max Temperature 44 °F 50 °F 69 °F (2016)
Min Temperature 17 °F 27 °F 17 °F (2013)
Degree Days  
Heating Degree Days 35    
Moisture  
Dew Point 16 °F    
Average Humidity 60    
Maximum Humidity 92    
Minimum Humidity 26    
Precipitation  
Precipitation 0.00 in - - ()
Sea Level Pressure  
Sea Level Pressure 30.40 in    
Wind  
Wind Speed 1 mph (North)    
Max Wind Speed 7 mph    
Max Gust Speed -    
Visibility 10 miles    
Events      
Averages and records for this station are not official NWS values.
T = Trace of Precipitation, MM = Missing Value Source: NWS Daily Summary

Daily Weather History Graph

Daily Weather History Graph

Search for Another Location

Airport or City:

Astronomy

Apr. 17, 2013 Rise Set
Actual Time 6:04 AM PDT 7:42 PM PDT
Civil Twilight 5:32 AM PDT 8:14 PM PDT
Nautical Twilight 4:54 AM PDT 8:52 PM PDT
Astronomical Twilight 4:14 AM PDT 9:33 PM PDT
Moon 11:16 AM PDT (4/17) 1:29 AM PDT (4/17)
Length of Visible Light 14h 41m
Length of Day
13h 38m
Waxing Crescent, 43% of the Moon is Illuminated
Apr 17
Waxing Crescent
Apr 18
First Quarter
Apr 25
Full
May 2
Last Quarter
May 9
New

Hourly Weather History & Observations

Time (PDT) Temp. Windchill Dew Point Humidity Pressure Visibility Wind Dir Wind Speed Gust Speed Precip Events Conditions
12:56 AM 21.0 °F - 18.0 °F 88% 30.34 in 10.0 mi Calm Calm - N/A   Clear
1:56 AM 19.9 °F - 17.1 °F 89% 30.35 in 10.0 mi Calm Calm - N/A   Clear
2:56 AM 19.0 °F - 16.0 °F 88% 30.33 in 10.0 mi Calm Calm - N/A   Clear
3:56 AM 18.0 °F - 15.1 °F 88% 30.36 in 10.0 mi Calm Calm - N/A   Clear
4:56 AM 17.1 °F - 14.0 °F 88% 30.36 in 10.0 mi Calm Calm - N/A   Clear
5:56 AM 17.1 °F - 12.9 °F 84% 30.39 in 10.0 mi Calm Calm - N/A   Clear
6:56 AM 18.0 °F - 16.0 °F 92% 30.40 in 10.0 mi Calm Calm - N/A   Clear
7:56 AM 26.1 °F - 21.0 °F 81% 30.41 in 10.0 mi Calm Calm - N/A   Clear
8:56 AM 34.0 °F 31.0 °F 19.0 °F 54% 30.41 in 10.0 mi Variable 3.5 mph - N/A   Clear
9:56 AM 37.0 °F 33.3 °F 17.1 °F 44% 30.42 in 10.0 mi Variable 4.6 mph - N/A   Clear
10:56 AM 39.0 °F 34.0 °F 14.0 °F 36% 30.43 in 10.0 mi Variable 6.9 mph - N/A   Clear
11:56 AM 39.0 °F 34.8 °F 16.0 °F 39% 30.43 in 10.0 mi Variable 5.8 mph - N/A   Clear
12:56 PM 39.0 °F 34.8 °F 16.0 °F 39% 30.43 in 10.0 mi Variable 5.8 mph - N/A   Clear
1:56 PM 42.1 °F 39.2 °F 19.0 °F 40% 30.42 in 10.0 mi Variable 4.6 mph - N/A   Partly Cloudy
2:56 PM 43.0 °F 39.5 °F 15.1 °F 32% 30.41 in 10.0 mi Variable 5.8 mph - N/A   Clear
3:56 PM 43.0 °F 41.3 °F 10.0 °F 26% 30.40 in 10.0 mi Variable 3.5 mph - N/A   Clear
4:56 PM 43.0 °F 40.3 °F 10.9 °F 27% 30.41 in 10.0 mi Variable 4.6 mph - N/A   Clear
5:56 PM 43.0 °F 41.3 °F 16.0 °F 34% 30.41 in 10.0 mi Variable 3.5 mph - N/A   Clear
6:56 PM 39.9 °F - 12.9 °F 33% 30.42 in 10.0 mi Calm Calm - N/A   Clear
7:56 PM 34.0 °F - 18.0 °F 52% 30.41 in 10.0 mi Calm Calm - N/A   Clear
8:56 PM 28.9 °F - 18.0 °F 64% 30.41 in 10.0 mi Calm Calm - N/A   Clear
9:56 PM 28.0 °F - 19.0 °F 69% 30.40 in 10.0 mi Calm Calm - N/A   Clear
10:56 PM 28.0 °F - 19.0 °F 69% 30.39 in 10.0 mi Calm Calm - N/A   Overcast
11:56 PM 27.0 °F - 19.9 °F 75% 30.39 in 10.0 mi Calm Calm - N/A   Overcast